Weather in San Juan

Puerto Rico     18°24′56″N   66°03′28″W
temp.,
°C
wind,
m/s
gust,
m/s
humid.,
%
clouds,
%
prec.,
mm/h
press.,
hPa
HPBL,
m
11 may, tue
tue1123:00+26e7980100 0.0 1019779
02:00+25ese5783100 0.1 1017642
05:00+25ese6986100 0.3 1017663
08:00+26ese697995 0.6 1018852
11:00+27e787596 0.3 1018989
14:00+28ene897683 0.5 1017971
17:00+27e797898 0.1 1016868
20:00+25e688663 0.2 1017614
12 may, wed
wed1223:00+25e788799 0.4 1019555
02:00+25e7985100 0.8 1017684
05:00+25ese698197 0.0 1017760
08:00+26e5773100 0.0 1018993
11:00+27e7768100 0.0 10181107
14:00+28e776493 0.0 10161021
17:00+27e7771100 0.0 1016963
20:00+25e6881100 0.0 1017655
13 may, thu
thu1323:00+25e798354 0.4 1018721
02:00+25e79790 0.6 1016773
05:00+24ese58805 0.0 1017729
08:00+26ese46755 0.0 1018653
11:00+28e67676 0.1 10171080
14:00+28e88699 0.1 10161037
17:00+28e77722 0.0 1015910
20:00+25ese57830 0.1 1016564
14 may, fri
fri1423:00+25ese67849 0.5 1017595
02:00+25se468213 0.7 1016553
05:00+24se35823 0.1 1016412
08:00+26ese46730 0.1 1017784
11:00+28e67641 0.0 10171083
14:00+29e88650 0.0 10151049
17:00+28e77721 0.0 1014871
20:00+26ese57826 0.1 1015513
15 may, sat
sat1523:00+25ese45865 0.1 1016433
02:00+25se35879 0.2 1015374
05:00+24se34878 0.2 1015320
08:00+26se35754 0.2 1016586
11:00+29e56668 0.0 1016899
14:00+29e88634 0.0 1014852
17:00+28ese67669 0.0 1013603
20:00+26se35800 0.3 1015245